Weather History for KRME - November, 2011

Change the Weather History Date:

Monday, November 7, 2011

  Actual Average Record
Temperature  
Mean Temperature 44 °F -  
Max Temperature 57 °F 45 °F 64 °F (1996)
Min Temperature 30 °F 32 °F 19 °F (2012)
Degree Days  
Heating Degree Days 22    
Moisture  
Dew Point 36 °F    
Average Humidity 75    
Maximum Humidity 92    
Minimum Humidity 53    
Precipitation  
Precipitation 0.00 in - - ()
Sea Level Pressure  
Sea Level Pressure 30.28 in    
Wind  
Wind Speed 4 mph (ESE)    
Max Wind Speed 7 mph    
Max Gust Speed -    
Visibility 10 miles    
Events      
Averages and records for this station are not official NWS values.
T = Trace of Precipitation, MM = Missing Value Source: NWS Daily Summary

Daily Weather History Graph

Daily Weather History Graph

Search for Another Location

Airport or City:

Trip Planner

Search our weather history database for the weather conditions in past years. The results will help you decide how hot, cold, wet, or windy it might be!

Date:

Astronomy

Nov. 07, 2011 Rise Set
Actual Time 6:43 AM EST 4:46 PM EST
Civil Twilight 6:13 AM EST 5:16 PM EST
Nautical Twilight 5:39 AM EST 5:50 PM EST
Astronomical Twilight 5:06 AM EST 6:23 PM EST
Moon 2:58 PM EST (11/7) 3:40 AM EST (11/7)
Length of Visible Light 11h 02m
Length of Day
10h 02m
Waxing Gibbous, 91% of the Moon is Illuminated
Nov 7
Waxing Gibbous
Nov 10
Full
Nov 18
Last Quarter
Nov 25
New
Dec 2
First Quarter

Hourly Weather History & Observations

Time (EST) Temp. Windchill Dew Point Humidity Pressure Visibility Wind Dir Wind Speed Gust Speed Precip Events Conditions
12:53 AM 39.0 °F 34.8 °F 30.0 °F 70% 30.31 in 10.0 mi East 5.8 mph - N/A   Clear
1:53 AM 37.0 °F 32.4 °F 30.0 °F 76% 30.32 in 10.0 mi East 5.8 mph - N/A   Clear
2:53 AM 37.0 °F 31.6 °F 30.9 °F 79% 30.32 in 10.0 mi East 6.9 mph - N/A   Clear
3:53 AM 34.0 °F 29.8 °F 30.0 °F 85% 30.31 in 10.0 mi East 4.6 mph - N/A   Clear
4:53 AM 30.9 °F 26.2 °F 28.0 °F 89% 30.32 in 10.0 mi SE 4.6 mph - N/A   Clear
5:53 AM 30.0 °F 24.1 °F 28.0 °F 92% 30.32 in 10.0 mi SE 5.8 mph - N/A   Clear
6:53 AM 30.9 °F 25.2 °F 28.9 °F 92% 30.32 in 10.0 mi SE 5.8 mph - N/A   Clear
7:53 AM 37.0 °F 32.4 °F 33.1 °F 86% 30.32 in 10.0 mi ESE 5.8 mph - N/A   Overcast
8:53 AM 42.1 °F 39.2 °F 34.0 °F 73% 30.31 in 10.0 mi SE 4.6 mph - N/A   Overcast
9:53 AM 46.0 °F 42.5 °F 36.0 °F 68% 30.30 in 10.0 mi ESE 6.9 mph - N/A   Overcast
10:53 AM 50.0 °F - 37.0 °F 61% 30.29 in 10.0 mi SSE 4.6 mph - N/A   Overcast
12:53 PM 55.0 °F - 39.0 °F 55% 30.25 in 10.0 mi Calm Calm - N/A   Overcast
1:53 PM 55.9 °F - 39.9 °F 55% 30.23 in 10.0 mi Calm Calm - N/A   Overcast
2:53 PM 57.0 °F - 39.9 °F 53% 30.23 in 10.0 mi Calm Calm - N/A   Overcast
4:53 PM 55.0 °F - 41.0 °F 59% 30.23 in 10.0 mi Calm Calm - N/A   Overcast
6:53 PM 52.0 °F - 43.0 °F 71% 30.25 in 10.0 mi Calm Calm - N/A   Overcast
7:53 PM 51.1 °F - 45.0 °F 80% 30.25 in 10.0 mi Calm Calm - N/A   Overcast
9:53 PM 51.1 °F - 44.1 °F 77% 30.26 in 10.0 mi Calm Calm - N/A   Overcast
10:53 PM 45.0 °F - 41.0 °F 86% 30.27 in 10.0 mi Calm Calm - N/A   Clear
11:53 PM 46.9 °F - 42.1 °F 83% 30.27 in 10.0 mi Calm Calm - N/A   Overcast